Content
SEND FEEDBACK

Daily
Averages
Monthly
Summary
United States of America

YUMA, ARIZONA


Home > North America > United States > Arizona
Elevation: 207 feet     Latitude: 32 39N     Longitude: 114 36W

WEATHER
 
SELECT A DAY
Number of Records: 154,754;   Date Range: 7/1/96 - 10/29/14
 
SHARE

PRINT THIS DATA

[ ← Previous Day ]
WEATHER ALMANAC - JANUARY 31, 2013
[ Next Day → ]
[ °C ]   °F
Weather ElementAverageHighLow
Temperature51.1 °F71.1 °F (2:55 pm) (4:00 am)
Dewpoint32 °F39 °F (10:55 am) (7:00 pm)
Humidity47.6 %71 % (6:55 am)25 % (2:55 pm)
Barometer26.70 in30.25 in (9:55 am) (7:00 pm)
Wind Speed5.9 mph12.7 mph (4:55 pm)
Weather ElementAverage
Visibility10 mi
Wind DirectionESE (119.6 °)

Weather ElementTotal
Precipitation---
Heating Degree Days29.5 (Base 65)
Averaged from 26 records on January 31, 2013
WEATHER CONDITIONS BREAKOUT
WIND DIRECTION BREAKOUT
WEATHER BY HOUR - JANUARY 31, 2013
[ °C ]   °F
Local TimeTemperatureDewpointHumidityBarometerVisibilityWind DirectionWind SpeedGust SpeedPrecipitationEventsConditions
1:55 AM48.9 °F37.9 °F66 %30.24 in10.0 miCalmPartly Cloudy
2:55 AM48.9 °F37.9 °F66 %30.22 in10.0 miCalmPartly Cloudy
3:55 AM48.9 °F37.0 °F64 %30.21 in10.0 miNE (50°)3.5 mphPartly Cloudy
4:00 AM0.0 °F0.0 °FNorth
4:55 AM46.9 °F36.0 °F66 %30.21 in10.0 miNNE (20°)3.5 mphScattered Clouds
5:55 AM46.9 °F37.0 °F68 %30.20 in10.0 miNorth (360°)4.6 mphScattered Clouds
6:55 AM46.0 °F37.0 °F71 %30.22 in10.0 miNNE (20°)3.5 mphMostly Cloudy
7:55 AM48.0 °F36.0 °F63 %30.21 in10.0 miNNE (30°)8.1 mphMostly Cloudy
8:55 AM51.1 °F37.0 °F59 %30.24 in10.0 miENE (60°)3.5 mphMostly Cloudy
9:55 AM55.9 °F36.0 °F47 %30.25 in10.0 miNorth (10°)9.2 mphMostly Cloudy
10:55 AM57.9 °F39.0 °F49 %30.25 in10.0 miNE (40°)6.9 mphMostly Cloudy
11:55 AM61.0 °F37.9 °F42 %30.23 in10.0 miNE (50°)9.2 mphMostly Cloudy
12:55 PM66.0 °F37.0 °F34 %30.20 in10.0 miNorth (10°)6.9 mphMostly Cloudy
1:55 PM69.1 °F33.1 °F26 %30.16 in10.0 miNorth (10°)8.1 mphMostly Cloudy
2:55 PM71.1 °F33.1 °F25 %30.14 in10.0 miNorth (10°)9.2 mphMostly Cloudy
3:55 PM71.1 °F33.1 °F25 %30.12 in10.0 miNNW (340°)8.1 mphMostly Cloudy
4:55 PM70.0 °F33.1 °F26 %30.11 in10.0 miNorth (350°)12.7 mphScattered Clouds
5:55 PM68.0 °F33.1 °F27 %30.13 in10.0 miNNW (340°)9.2 mphPartly Cloudy
6:55 PM64.0 °F35.1 °F34 %30.13 in10.0 miNNW (340°)6.9 mphPartly Cloudy
7:01 PM0.0 °F0.0 °FNorth
7:55 PM62.1 °F35.1 °F37 %30.12 in10.0 miNorth (350°)5.8 mphPartly Cloudy
8:55 PM60.1 °F37.0 °F42 %30.12 in10.0 miNorth (360°)4.6 mphClear
9:00 PM0.0 °F0.0 °FNorth
9:55 PM57.0 °F37.9 °F49 %30.13 in10.0 miWest (280°)5.8 mphClear
10:55 PM54.0 °F37.9 °F55 %30.13 in10.0 miCalmClear
11:55 PM55.9 °F39.0 °F53 %30.13 in10.0 miEast (80°)5.8 mphClear
Hourly data recorded from KNYL, located miles away from Yuma, Arizona







STORIES FROM OUR PARTNERS